Location: Duffs
(47.4500°N, 53.1167°W)
Time: 11:57:46
(UTC+00:00)

Envisat - Pass Details

Date: 20 May 2022
Orbit: 764 x 765 km, 98.2° (Epoch: 02 July)

Event Time Altitude Azimuth Distance (km) Brightness Sun altitude
Rises 06:52:21 0° 29° (NNE) 3,243 7.9 -8.6°
Reaches altitude 10° 06:55:36 10° 51° (NE) 2,310 7.2 -8.2°
Maximum altitude 06:58:40 16° 88° (E) 1,922 5.9 -7.8°
Drops below altitude 10° 07:01:44 10° 126° (SE) 2,299 5.7 -7.4°
Sets 07:04:56 0° 148° (SSE) 3,218 6.2 -7.0°
